EN

Hourly Weather Alvaschein

Today, 18 January, Monday

Time Temperature Precipitation Wind Pressure Humidity
00:00 -7°C° 0.2 mm 2 mps 643 mmHg 95%
01:00 -9°C° 0 mm 3 mps 643 mmHg 95%
02:00 -9°C° 0.1 mm 3 mps 643 mmHg 95%
03:00 -9°C° 0.1 mm 2 mps 643 mmHg 96%
04:00 -9°C° 0.1 mm 2 mps 643 mmHg 96%
05:00 -10°C° 0.1 mm 2 mps 643 mmHg 96%
06:00 -10°C° 0.1 mm 2 mps 643 mmHg 96%
07:00 -10°C° 0 mm 2 mps 644 mmHg 96%
08:00 -9°C° 0.1 mm 2 mps 644 mmHg 95%
09:00 -8°C° 0.1 mm 2 mps 644 mmHg 95%
10:00 -7°C° 0.1 mm 2 mps 645 mmHg 94%
11:00 -6°C° 0 mm 2 mps 645 mmHg 92%
12:00 -6°C° 0 mm 2 mps 645 mmHg 90%
13:00 -6°C° 0 mm 3 mps 645 mmHg 88%
14:00 -5°C° 0 mm 2 mps 645 mmHg 90%
15:00 -6°C° 0 mm 2 mps 644 mmHg 92%
16:00 -6°C° 0 mm 1 mps 644 mmHg 94%
17:00 -7°C° 0 mm 1 mps 644 mmHg 92%
18:00 -10°C° 0 mm 2 mps 644 mmHg 91%
19:00 -12°C° 0 mm 2 mps 644 mmHg 89%
20:00 -12°C° 0 mm 2 mps 644 mmHg 85%
21:00 -12°C° 0 mm 2 mps 644 mmHg 80%
22:00 -12°C° 0 mm 2 mps 644 mmHg 76%
23:00 -10°C° 0 mm 2 mps 644 mmHg 70%

Tomorrow, 19 January, Tuesday

Time Temperature Precipitation Wind Pressure Humidity
00:00 -9°C° 0 mm 1 mps 644 mmHg 64%
01:00 -9°C° 0 mm 1 mps 644 mmHg 58%
02:00 -8°C° 0 mm 1 mps 644 mmHg 55%
03:00 -8°C° 0 mm 1 mps 644 mmHg 52%
04:00 -8°C° 0 mm 1 mps 643 mmHg 50%
05:00 -8°C° 0 mm 1 mps 643 mmHg 50%
06:00 -7°C° 0 mm 1 mps 643 mmHg 50%
07:00 -8°C° 0 mm 2 mps 643 mmHg 51%
08:00 -6°C° 0 mm 2 mps 643 mmHg 55%
09:00 -5°C° 0 mm 2 mps 643 mmHg 59%
10:00 -4°C° 0 mm 2 mps 644 mmHg 63%
11:00 -3°C° 0 mm 2 mps 644 mmHg 65%
12:00 -1°C° 0 mm 2 mps 644 mmHg 67%
13:00 +1°C° 0 mm 2 mps 644 mmHg 69%
14:00 -1°C° 0 mm 2 mps 643 mmHg 71%
15:00 -2°C° 0 mm 2 mps 643 mmHg 72%
16:00 0°C° 0 mm 1 mps 642 mmHg 74%
17:00 -4°C° 0 mm 2 mps 642 mmHg 69%
18:00 -5°C° 0 mm 2 mps 642 mmHg 65%
19:00 -6°C° 0 mm 2 mps 641 mmHg 60%
20:00 -6°C° 0 mm 2 mps 641 mmHg 60%
21:00 -7°C° 0 mm 2 mps 641 mmHg 59%
22:00 -8°C° 0 mm 3 mps 641 mmHg 58%
23:00 -8°C° 0 mm 3 mps 641 mmHg 60%

Day after tomorrow, 20 January, Wednesday

Time Temperature Precipitation Wind Pressure Humidity
00:00 -8°C° 0 mm 3 mps 641 mmHg 61%
01:00 -8°C° 0 mm 3 mps 641 mmHg 63%
02:00 -8°C° 0 mm 3 mps 640 mmHg 65%
03:00 -9°C° 0 mm 3 mps 640 mmHg 68%
04:00 -9°C° 0 mm 3 mps 639 mmHg 70%
05:00 -9°C° 0 mm 3 mps 639 mmHg 72%
06:00 -9°C° 0 mm 3 mps 639 mmHg 73%
07:00 -10°C° 0 mm 4 mps 639 mmHg 75%
08:00 -9°C° 0 mm 4 mps 640 mmHg 78%
09:00 -7°C° 0 mm 4 mps 640 mmHg 81%
10:00 -5°C° 0 mm 4 mps 640 mmHg 85%
11:00 -4°C° 0 mm 4 mps 640 mmHg 86%
12:00 -3°C° 0 mm 4 mps 640 mmHg 87%
13:00 -2°C° 0 mm 5 mps 640 mmHg 88%
14:00 -4°C° 0 mm 5 mps 639 mmHg 88%
15:00 -4°C° 0 mm 5 mps 639 mmHg 88%
16:00 -4°C° 0 mm 5 mps 639 mmHg 88%
17:00 -5°C° 0 mm 5 mps 638 mmHg 88%
18:00 -4°C° 0 mm 4 mps 638 mmHg 88%
19:00 -5°C° 0 mm 4 mps 638 mmHg 87%
20:00 -5°C° 0.1 mm 4 mps 638 mmHg 87%
21:00 -5°C° 0.1 mm 4 mps 638 mmHg 87%
22:00 -5°C° 0.1 mm 4 mps 638 mmHg 87%
23:00 -5°C° 0.1 mm 4 mps 638 mmHg 87%

21 January, Thursday

Time Temperature Precipitation Wind Pressure Humidity
00:00 -6°C° 0.1 mm 5 mps 638 mmHg 87%
01:00 -6°C° 0.1 mm 5 mps 637 mmHg 87%
02:00 -6°C° 0.2 mm 5 mps 637 mmHg 87%
03:00 -6°C° 0.2 mm 5 mps 636 mmHg 87%
04:00 -6°C° 0.2 mm 5 mps 636 mmHg 87%
05:00 -5°C° 0.2 mm 4 mps 636 mmHg 87%
06:00 -5°C° 0.2 mm 4 mps 636 mmHg 88%
07:00 -5°C° 0.2 mm 4 mps 636 mmHg 88%
08:00 -4°C° 0.1 mm 4 mps 636 mmHg 88%
09:00 -3°C° 0.1 mm 4 mps 636 mmHg 88%
10:00 -3°C° 0.1 mm 4 mps 636 mmHg 88%
11:00 -2°C° 0.1 mm 4 mps 636 mmHg 88%
12:00 -1°C° 0.1 mm 4 mps 636 mmHg 89%
13:00 0°C° 0.1 mm 4 mps 636 mmHg 89%
14:00 -1°C° 0.1 mm 4 mps 635 mmHg 89%
15:00 -1°C° 0.1 mm 4 mps 635 mmHg 89%
16:00 -1°C° 0.1 mm 4 mps 635 mmHg 88%
17:00 -2°C° 0.1 mm 4 mps 634 mmHg 88%
18:00 -3°C° 0.1 mm 4 mps 634 mmHg 88%
19:00 -4°C° 0.1 mm 4 mps 634 mmHg 88%
20:00 -3°C° 0.2 mm 4 mps 633 mmHg 88%
21:00 -3°C° 0.2 mm 4 mps 633 mmHg 88%
22:00 -3°C° 0.2 mm 4 mps 632 mmHg 89%
23:00 -3°C° 0.6 mm 4 mps 632 mmHg 89%

22 January, Friday

Time Temperature Precipitation Wind Pressure Humidity
00:00 -3°C° 0.6 mm 4 mps 631 mmHg 90%
01:00 -3°C° 0.6 mm 4 mps 631 mmHg 90%
02:00 -3°C° 0.7 mm 4 mps 631 mmHg 90%
03:00 -1°C° 0.7 mm 3 mps 630 mmHg 91%
04:00 -1°C° 0.7 mm 3 mps 630 mmHg 91%
05:00 -2°C° 0.2 mm 3 mps 629 mmHg 90%
06:00 -2°C° 0.2 mm 2 mps 629 mmHg 90%
07:00 -3°C° 0.2 mm 2 mps 628 mmHg 89%
08:00 -2°C° 0.1 mm 2 mps 629 mmHg 90%
09:00 0°C° 0.1 mm 1 mps 629 mmHg 91%
10:00 +1°C° 0.1 mm 1 mps 630 mmHg 93%
11:00 -1°C° 0.8 mm 2 mps 630 mmHg 94%
12:00 -1°C° 0.8 mm 3 mps 630 mmHg 94%
13:00 -2°C° 0.8 mm 4 mps 630 mmHg 95%
14:00 -3°C° 0.4 mm 4 mps 630 mmHg 95%
15:00 -4°C° 0.4 mm 4 mps 630 mmHg 94%
16:00 -4°C° 0.4 mm 4 mps 630 mmHg 94%
17:00 -5°C° 0.2 mm 3 mps 630 mmHg 94%
18:00 -6°C° 0.2 mm 3 mps 631 mmHg 95%
19:00 -7°C° 0.2 mm 3 mps 631 mmHg 95%
20:00 -8°C° 0 mm 3 mps 631 mmHg 94%
21:00 -7°C° 0 mm 2 mps 631 mmHg 93%
22:00 -8°C° 0 mm 2 mps 631 mmHg 92%
23:00 -9°C° 0 mm 2 mps 632 mmHg 91%

23 January, Saturday

Time Temperature Precipitation Wind Pressure Humidity
00:00 -9°C° 0 mm 2 mps 632 mmHg 90%
01:00 -10°C° 0 mm 2 mps 632 mmHg 89%
02:00 -10°C° 0 mm 2 mps 632 mmHg 85%
03:00 -12°C° 0 mm 2 mps 631 mmHg 81%
04:00 -12°C° 0 mm 2 mps 631 mmHg 77%
05:00 -12°C° 0 mm 2 mps 631 mmHg 73%
06:00 -12°C° 0 mm 2 mps 631 mmHg 69%
07:00 -10°C° 0 mm 2 mps 631 mmHg 65%
08:00 -9°C° 0 mm 2 mps 632 mmHg 66%
09:00 -8°C° 0 mm 2 mps 632 mmHg 66%
10:00 -6°C° 0 mm 2 mps 632 mmHg 67%
11:00 -6°C° 0 mm 3 mps 632 mmHg 67%
12:00 -5°C° 0 mm 3 mps 631 mmHg 67%
13:00 -4°C° 0 mm 4 mps 631 mmHg 67%
14:00 -4°C° 0 mm 4 mps 631 mmHg 72%
15:00 -5°C° 0 mm 4 mps 630 mmHg 77%
16:00 -7°C° 0 mm 4 mps 630 mmHg 82%
17:00 -7°C° 0 mm 3 mps 630 mmHg 83%
18:00 -8°C° 0 mm 3 mps 630 mmHg 84%
19:00 -8°C° 0 mm 3 mps 630 mmHg 84%
20:00 -8°C° 0.1 mm 2 mps 630 mmHg 85%
21:00 -8°C° 0.1 mm 2 mps 630 mmHg 86%
22:00 -8°C° 0.1 mm 2 mps 630 mmHg 87%
23:00 -8°C° 0.1 mm 2 mps 629 mmHg 87%
Show more